Copper Harbor, MI

10:47 PM EDT on August 21, 2017 (GMT -0400)
Copper Harbor

Weather History for KP59 - November, 2011

Change the Weather History Date:

Thursday, November 3, 2011

  Actual Average Record
Temperature  
Mean Temperature 40 °F -  
Max Temperature 48 °F 42 °F 55 °F (2008)
Min Temperature 33 °F 32 °F 3 °F (1996)
Degree Days  
Heating Degree Days 26    
Moisture  
Dew Point 31 °F    
Average Humidity 66    
Maximum Humidity 85    
Minimum Humidity 53    
Precipitation  
Precipitation 0.00 in - - ()
Sea Level Pressure  
Sea Level Pressure 30.20 in    
Wind  
Wind Speed 11 mph (NW)    
Max Wind Speed 17 mph    
Max Gust Speed 25 mph    
Averages and records for this station are not official NWS values.
T = Trace of Precipitation, MM = Missing Value Source: NWS Daily Summary

Daily Weather History Graph

Daily Weather History Graph

Search for Another Location

Airport or City:

Trip Planner

Search our weather history database for the weather conditions in past years. The results will help you decide how hot, cold, wet, or windy it might be!

Date:

Astronomy

Nov. 03, 2011 Rise Set
Actual Time 8:37 AM EDT 6:31 PM EDT
Civil Twilight 8:05 AM EDT 7:03 PM EDT
Nautical Twilight 7:29 AM EDT 7:40 PM EDT
Astronomical Twilight 6:53 AM EDT 8:16 PM EDT
Moon 3:20 PM EDT (11/3) 1:22 AM EDT (11/3)
Length of Visible Light 10h 58m
Length of Day
9h 53m
First Quarter, 60% of the Moon is Illuminated
Nov 3
First Quarter
Nov 10
Full
Nov 18
Last Quarter
Nov 25
New
Dec 2
First Quarter

Hourly Weather History & Observations

Time (EDT) Temp. Windchill Dew Point Humidity Pressure Visibility Wind Dir Wind Speed Gust Speed Precip Events Conditions
12:51 AM 44.1 °F 37.1 °F 32.0 °F 63% 30.16 in - NE 15.0 mph 23.0 mph N/A   Unknown
1:51 AM 43.0 °F 35.1 °F 28.9 °F 58% 30.19 in - NNE 17.3 mph - N/A   Unknown
2:51 AM 43.0 °F 36.0 °F 27.0 °F 53% 30.18 in - NNE 13.8 mph - N/A   Unknown
3:51 AM 43.0 °F 37.2 °F 28.0 °F 56% 30.18 in - NNE 10.4 mph - N/A   Unknown
4:51 AM 43.0 °F 37.7 °F 28.0 °F 56% 30.19 in - NNE 9.2 mph - N/A   Unknown
5:51 AM 43.0 °F 36.4 °F 30.0 °F 60% 30.19 in - North 12.7 mph - N/A   Unknown
6:51 AM 39.9 °F 35.8 °F 28.9 °F 65% 30.22 in - North 5.8 mph 17.3 mph N/A   Unknown
7:51 AM 34.0 °F 28.8 °F 26.1 °F 73% 30.22 in - WSW 5.8 mph - N/A   Unknown
8:51 AM 33.1 °F 26.9 °F 27.0 °F 78% 30.22 in - WSW 6.9 mph - N/A   Unknown
9:51 AM 36.0 °F 32.1 °F 28.0 °F 73% 30.22 in - WSW 4.6 mph - N/A   Unknown
10:51 AM 44.1 °F 42.5 °F 30.0 °F 58% 30.21 in - West 3.5 mph - N/A   Unknown
11:51 AM 46.0 °F 43.1 °F 30.9 °F 56% 30.20 in - North 5.8 mph - N/A   Unknown
12:51 PM 46.9 °F - 35.1 °F 63% 30.20 in - North 15.0 mph - N/A   Unknown
1:51 PM 46.9 °F - 34.0 °F 61% 30.19 in - NNW 17.3 mph - N/A   Unknown
2:51 PM 46.9 °F - 34.0 °F 61% 30.18 in - NNW 16.1 mph 25.3 mph N/A   Unknown
3:51 PM 46.9 °F - 34.0 °F 61% 30.18 in - NNW 12.7 mph 24.2 mph N/A   Unknown
4:51 PM 46.0 °F 41.0 °F 32.0 °F 58% 30.18 in - NNW 10.4 mph 23.0 mph N/A   Unknown
5:51 PM 45.0 °F 41.2 °F 33.1 °F 63% 30.19 in - Variable 6.9 mph - N/A   Unknown
6:51 PM 43.0 °F 41.3 °F 32.0 °F 65% 30.20 in - Variable 3.5 mph - N/A   Unknown
7:51 PM 39.9 °F 36.7 °F 32.0 °F 73% 30.22 in - West 4.6 mph - N/A   Unknown
8:51 PM 37.9 °F 35.5 °F 30.9 °F 76% 30.22 in - WSW 3.5 mph - N/A   Unknown
9:51 PM 37.9 °F 34.4 °F 32.0 °F 79% 30.22 in - WSW 4.6 mph - N/A   Unknown
10:51 PM 36.0 °F 31.1 °F 30.9 °F 82% 30.22 in - West 5.8 mph - N/A   Unknown
11:51 PM 35.1 °F 30.1 °F 30.9 °F 85% 30.22 in - WSW 5.8 mph - N/A   Unknown